User: anonymous   Login
Location: Iesi
(43.5167°N, 13.2333°E)
Time: 01:02:36
(UTC+00:00)
Language:

Cosmos 1741 Rocket - Orbit

View from above orbital plane
View from above orbital plane
View from above satellite
View from above satellite

Ground track
Ground track

The orbit data is extracted from the following two-line orbital elements,

1 16682U 86030B   20293.06314216  .00000092  00000-0  40722-4 0  9999
2 16682  74.0252 145.9501 0014913 190.5077 323.0236 14.35912178806269
Epoch (UTC): 19 October 2020 01:30:55
Eccentricity: 0.0014913
inclination: 74.0252°
perigee height: 761 km
apogee height: 783 km
right ascension of ascending node: 145.9501°
argument of perigee: 190.5077°
revolutions per day: 14.35912178
mean anomaly at epoch: 323.0236°
orbit number at epoch: 80626

The dashed part of the orbit path shows where the satellite is in the earth's shadow,  

DLR